FW1136 Weather Reports


time (UTC)temp
F
wind
direction
speed
knots
gust
knots
rain 1hr
in
rain 24hr
in
rain mn
in
humidity
%
barometer
mb
20260505065037 55 0.0 1.7 0.00 0.00 0.00 62 1000.4
20260505064037 56 0.0 5.2 0.00 0.00 0.00 62 1000.4
20260505063017 56 0.0 1.7 0.00 0.00 0.00 62 1000.2
20260505062017 57 0.0 8.7 0.00 0.00 0.00 60 1000.1
20260505061017 57 0.0 6.1 0.00 0.00 0.00 57 1000.0
20260505060017 58 0.0 4.3 0.00 0.00 0.00 54 999.7
20260505055016 59 0.0 2.6 0.00 0.00 0.00 50 999.5
20260505054016 59 0.0 0.9 0.00 0.00 0.00 49 999.3
20260505053016 60 0.0 2.6 0.00 0.00 0.00 48 999.2
20260505052016 60 180 0.9 11.3 0.00 0.00 0.00 47 999.2
20260505051016 60 0.0 0.9 0.00 0.00 0.00 47 999.1
20260505041016 60 0.0 0.0 0.00 0.00 0.00 44 998.8
20260505040016 60 0.0 0.0 0.00 0.00 0.00 44 998.6
20260505035016 61 0.0 1.7 0.00 0.00 0.00 42 998.4
20260505034016 62 0.0 0.0 0.00 0.00 0.00 39 998.3
20260505033016 62 0.0 0.0 0.00 0.00 0.00 38 998.1
20260505032016 61 0.0 0.0 0.00 0.00 0.00 41 997.9
20260505031017 62 0.0 0.0 0.00 0.00 0.00 39 997.8
20260505030036 62 0.0 0.0 0.00 0.00 0.00 39 997.7
20260505025016 62 0.0 0.0 0.00 0.00 0.00 39 997.5
20260505024016 63 0.0 0.0 0.00 0.00 0.00 39 997.4
20260505023016 64 0.0 0.9 0.00 0.00 0.00 37 997.4
20260505022016 65 0.0 0.0 0.00 0.00 0.00 36 997.3
20260505021016 65 0.0 0.0 0.00 0.00 0.00 36 997.3
20260505020056 66 0.0 0.0 0.00 0.00 0.00 34 997.3
20260505015016 66 0.0 0.0 0.00 0.00 0.00 34 997.1
20260505014016 67 0.0 0.9 0.00 0.00 0.00 34 997.1
20260505013016 67 0.0 0.0 0.00 0.00 0.00 33 997.2
20260505012016 67 0.0 0.0 0.00 0.00 0.00 34 997.3
20260505011016 68 0.0 0.0 0.00 0.00 0.00 33 997.4
20260505010016 68 0.0 0.0 0.00 0.00 0.00 33 997.4
20260505005036 68 0.0 0.0 0.00 0.00 0.00 31 997.4
20260505004036 68 0.0 0.9 0.00 0.00 0.00 33 997.6
20260505003016 68 0.0 0.0 0.00 0.00 0.00 33 997.7
20260505002016 69 0.0 0.0 0.00 0.00 0.00 34 997.8
20260505001016 69 0.0 0.0 0.00 0.00 0.00 34 997.8
20260505000016 69 0.0 4.3 0.00 0.00 0.00 33 997.8
20260504235015 71 0.0 2.6 0.00 0.00 0.00 33 997.8
20260504234016 71 0.0 0.9 0.00 0.00 0.00 32 997.9
20260504233015 71 0.0 0.9 0.00 0.00 0.00 30 997.9
20260504232016 72 0.0 0.9 0.00 0.00 0.00 31 998.0
20260504231016 71 0.0 0.0 0.00 0.00 0.00 33 998.0
20260504230015 70 0.0 3.5 0.00 0.00 0.00 34 998.0
20260504225015 73 0.0 1.7 0.00 0.00 0.00 30 998.0
20260504224016 74 0.0 2.6 0.00 0.00 0.00 31 998.0
20260504223015 75 0.0 0.0 0.00 0.00 0.00 27 997.8
20260504222015 74 0.0 0.0 0.00 0.00 0.00 29 997.8
20260504221015 75 0.0 0.0 0.00 0.00 0.00 23 997.9
20260504220015 76 0.0 0.0 0.00 0.00 0.00 25 998.0
20260504215015 75 0.0 0.0 0.00 0.00 0.00 27 998.1
20260504214015 75 0.0 0.0 0.00 0.00 0.00 26 998.2
20260504213015 74 0.0 0.0 0.00 0.00 0.00 25 998.4
20260504212015 74 0.0 0.0 0.00 0.00 0.00 28 998.5
20260504211015 74 0.0 0.0 0.00 0.00 0.00 25 998.7
20260504210015 73 0.0 0.0 0.00 0.00 0.00 24 998.7
20260504205015 73 0.0 0.0 0.00 0.00 0.00 27 998.8
20260504204037 74 0.0 0.0 0.00 0.00 0.00 29 998.9
20260504203017 75 0.0 0.0 0.00 0.00 0.00 30 999.0
20260504202037 75 0.0 0.0 0.00 0.00 0.00 33 999.0
20260504201017 73 0.0 0.0 0.00 0.00 0.00 29 999.1
20260504200017 73 0.0 0.0 0.00 0.00 0.00 32 999.3
20260504195017 70 0.0 0.0 0.00 0.00 0.00 32 999.4
20260504194018 78 0.0 0.0 0.00 0.00 0.00 29 999.5
20260504193017 74 0.0 0.0 0.00 0.00 0.00 35 999.7
20260504192017 74 0.0 0.9 0.00 0.00 0.00 30 999.8
20260504191017 74 0.0 0.0 0.00 0.00 0.00 29 999.9
20260504190037 76 0.0 0.0 0.00 0.00 0.00 31 1000.0
20260504185017 77 0.0 0.0 0.00 0.00 0.00 30 1000.1
20260504184037 77 0.0 0.0 0.00 0.00 0.00 30 1000.2
20260504183017 75 0.0 0.0 0.00 0.00 0.00 28 1000.4
20260504182037 73 0.0 0.0 0.00 0.00 0.00 32 1000.5
20260504181017 74 0.0 0.0 0.00 0.00 0.00 30 1000.6
20260504180037 74 0.0 0.0 0.00 0.00 0.00 31 1000.7
20260504175017 72 0.0 0.0 0.00 0.00 0.00 32 1000.8
20260504174037 73 0.0 0.0 0.00 0.00 0.00 31 1000.8
20260504173016 74 0.0 0.0 0.00 0.00 0.00 33 1001.0
20260504172016 72 0.0 0.0 0.00 0.00 0.00 35 1001.0
20260504171016 71 0.0 2.6 0.00 0.00 0.00 38 1001.0
20260504151016 59 0.0 0.0 0.00 0.00 0.00 44 1001.4
20260504141016 54 0.0 0.0 0.00 0.00 0.00 49 1001.4
20260504081015 60 0.0 0.0 0.00 0.00 0.00 27 1000.2